YO8SSH-13 Weather Reports


time (UTC)temp
F
wind
direction
speed
knots
gust
knots
rain 1hr
in
rain 24hr
in
rain mn
in
humidity
%
barometer
mb
20260503195407 54 292 0.0 0.9 0.00 0.00 0.00 55 1015.0
20260503193905 55 292 0.9 1.7 0.00 0.00 0.00 54 1015.0
20260503192408 55 292 0.9 0.9 0.00 0.00 0.00 53 1015.0
20260503190907 56 248 0.0 1.7 0.00 0.00 0.00 52 1015.0
20260503185406 57 202 2.6 2.6 0.00 0.00 0.00 51 1015.0
20260503183905 58 202 1.7 1.7 0.00 0.00 0.00 48 1015.0
20260503182405 60 315 0.0 0.9 0.00 0.00 0.00 45 1016.0
20260503180913 60 225 0.0 0.0 0.00 0.00 0.00 43 1016.0
20260503175406 62 202 0.0 0.9 0.00 0.00 0.00 42 1016.0
20260503173907 62 248 0.0 0.9 0.00 0.00 0.00 41 1015.0
20260503172406 63 202 0.0 0.0 0.00 0.00 0.00 40 1015.0
20260503170907 64 180 0.0 0.9 0.00 0.00 0.00 39 1016.0
20260503150906 73 22 0.0 1.7 0.00 0.00 0.00 33 1016.0
20260503130919 70 90 0.9 1.7 0.00 0.00 0.00 34 1017.0
20260503080905 61 180 0.9 1.7 0.00 0.00 0.00 39 1020.0
20260503072406 60 315 0.0 3.5 0.00 0.00 0.00 42 1020.0
20260503070905 59 112 1.7 3.5 0.00 0.00 0.00 46 1020.0
20260503053905 48 90 0.9 0.9 0.00 0.00 0.00 65 1020.0
20260503052406 47 90 0.0 0.0 0.00 0.00 0.00 66 1020.0
20260503050927 44 180 0.0 1.7 0.00 0.00 0.00 71 1020.0
20260503045405 40 180 0.0 0.0 0.00 0.00 0.00 73 1020.0
20260503043906 39 180 0.0 0.0 0.00 0.00 0.00 72 1020.0
20260503042406 38 292 0.0 0.0 0.00 0.00 0.00 73 1019.0
20260503040907 37 292 0.0 0.0 0.00 0.00 0.00 73 1019.0
20260503035405 37 292 0.0 0.9 0.00 0.00 0.00 72 1019.0
20260503033905 37 292 0.0 0.0 0.00 0.00 0.00 72 1019.0
20260503032405 37 292 0.0 0.0 0.00 0.00 0.00 71 1019.0
20260503030905 37 292 0.0 0.0 0.00 0.00 0.00 71 1019.0
20260503025404 37 292 0.0 0.0 0.00 0.00 0.00 70 1019.0
20260503023907 37 292 0.0 0.0 0.00 0.00 0.00 70 1019.0
20260503022405 37 292 0.0 0.0 0.00 0.00 0.00 70 1019.0
20260503020905 38 292 0.0 0.0 0.00 0.00 0.00 70 1019.0
20260503015406 38 292 0.0 0.0 0.00 0.00 0.00 70 1019.0
20260503013905 38 292 0.0 0.0 0.00 0.00 0.00 70 1019.0
20260503012406 38 292 0.0 0.0 0.00 0.00 0.00 69 1019.0
20260503010905 38 292 0.0 0.0 0.00 0.00 0.00 69 1019.0
20260503005406 39 292 0.0 0.0 0.00 0.00 0.00 69 1019.0
20260503003905 39 292 0.0 0.0 0.00 0.00 0.00 68 1019.0
20260503002405 39 292 0.0 0.0 0.00 0.00 0.00 67 1019.0
20260503000905 39 292 0.0 0.0 0.00 0.00 0.00 67 1019.0
20260502235405 40 315 0.0 0.0 0.00 0.00 0.00 67 1019.0
20260502233906 40 315 0.0 0.0 0.00 0.00 0.00 66 1020.0
20260502232406 41 202 0.0 0.0 0.00 0.00 0.00 66 1020.0
20260502230906 41 202 0.0 0.0 0.00 0.00 0.00 66 1020.0
20260502225423 41 202 0.0 0.0 0.00 0.00 0.00 66 1020.0
20260502223908 41 0 0.0 0.0 0.00 0.00 0.00 65 1020.0
20260502222410 42 270 0.0 0.0 0.00 0.00 0.00 64 1020.0
20260502220913 42 292 0.0 0.0 0.00 0.00 0.00 64 1020.0
20260502215414 43 292 0.0 0.0 0.00 0.00 0.00 63 1020.0
20260502213917 43 315 0.0 0.0 0.00 0.00 0.00 62 1020.0
20260502212418 43 292 0.0 0.0 0.00 0.00 0.00 62 1020.0
20260502210921 44 292 0.0 0.9 0.00 0.00 0.00 62 1020.0
20260502205423 44 202 0.0 1.7 0.00 0.00 0.00 60 1020.0
20260502203926 45 292 0.0 0.9 0.00 0.00 0.00 59 1020.0
20260502202428 46 315 0.0 0.9 0.00 0.00 0.00 56 1020.0
20260502200931 46 292 0.0 0.0 0.00 0.00 0.00 55 1020.0